LILACSAT-2

Last updated on Fri Oct 24 2025 00:03:14 GMT+0000 (Coordinated Universal Time)

1 40908U 15049K 25296.62858410 .00018477 00000+0 42470-3 0 9994 2 40908 97.4973 320.5285 0009579 42.0866 318.1115 15.42677653559176
UTC large
Height (km)
Speed (km/s)
/
Latitude / Longitude
Inclination (degrees)
Orbital Period (minutes)
Azimuth
Elevation
Range (km)
Doppler Factor

Next 0 passes for location: London (51.5072 / 0.1276)

Sorry there are no passes over London.